Weather in Arey

Russia / Zabaykalsky Krai     50°58′13″N   111°14′47″E
temp.,
°C
wind,
m/s
gust,
m/s
humid.,
%
clouds,
%
prec.,
mm/h
press.,
hPa
HPBL,
m
26 february, fri
fri2600:00−12e2295100 0.0 102072
03:00−14ese2498100 0.0 1017135
06:00−15ese1299100 0.0 101542
09:00−14ese1297100 0.1 101585
12:00−9ne1280100 0.0 1014237
15:00−7e1282100 0.1 1011325
18:00−10e1293100 1.2 1010134
21:00−11ene1197100 3.3 101174
27 february, sat
sat2700:00−11wnw2695100 2.2 1012470
03:00−13wnw41191100 2.8 1015677
06:00−16wnw61390100 0.4 1019715
09:00−19w71487100 0.5 1023807
12:00−18wnw81375100 0.0 10261036
15:00−17wnw81367100 0.0 10281523
18:00−19wnw71270100 0.1 10311393
21:00−23wnw3118890 0.1 1037442
28 february, sun
sun2800:00−24w389792 0.0 1040258
03:00−27wsw279383 0.1 1041155
06:00−28w249725 0.0 104277
09:00−28wsw239332 0.0 104385
12:00−18wnw48570 0.0 10401144
15:00−16wnw47563 0.0 10371718
18:00−17nw356499 0.0 10371172
21:00−22wsw1184100 0.0 104120
1 march, mon
mon100:00−24wsw229697 0.0 104320
03:00−26sw129549 0.0 104320
06:00−28sw12926 0.0 104321
09:00−27sw128928 0.0 104222
12:00−17sw246872 0.0 1037487
15:00−14wnw476680 0.1 10331695
18:00−15wnw4771100 0.1 10311454
21:00−22w229084 0.1 103320
2 march, tue
tue200:00−24wsw12900 0.0 103420
03:00−25sw12890 0.0 103322
06:00−26sw12920 0.0 103121
09:00−26sw12890 0.0 103122
12:00−14sw236828 0.0 1025349
15:00−9wsw245929 0.0 10201188
18:00−9w157262 0.0 1018938
21:00−16wsw128966 0.0 102120